Wind_Speed
23 24 25 24 23 23 22 22 22 23 23 23 22 22 21 21 19 18 18 18 18 19 19 18 16 16 15 14 14 13 12 12 12 11 11 11 11 11 10 10 11 11 11 10 10 10 11 12 13 14 14 13 13 13 10 10 11 9 10 10 11 12 11 11 12 13 12 12 10 8 7 9 9 8 10 9 9 10 12 13 11 11 13 14 15
23 22 24 24 24 23 23 23 22 22 23 24 24 23 22 22 21 20 20 20 19 19 19 19 18 17 16 15 14 14 13 12 12 12 12 12 12 11 11 11 11 12 12 12 12 12 12 13 14 14 13 13 14 14 12 10 11 11 9 10 11 11 10 10 11 12 13 12 11 10 8 8 8 9 11 10 10 11 11 12 11 9 10 14 16
23 21 22 24 24 24 23 23 23 23 23 24 24 24 23 23 24 22 21 21 21 21 20 19 19 19 17 16 16 16 16 15 13 13 13 12 12 12 11 11 12 12 13 13 13 13 14 15 15 13 12 12 12 13 13 12 12 12 11 12 11 9 10 12 13 13 13 12 11 11 8 7 9 11 11 12 12 12 12 13 13 10 8 11 14
22 21 21 21 21 23 24 23 23 23 23 23 24 25 24 23 24 25 23 22 21 23 22 20 20 20 19 19 19 19 19 17 16 15 15 14 13 13 12 12 13 12 13 13 13 14 15 15 15 13 12 12 12 13 13 14 16 15 14 13 12 9 10 13 13 14 15 14 13 12 10 10 12 12 12 13 12 12 12 12 13 13 11 11 11
20 22 23 22 21 23 25 24 24 24 24 24 24 25 25 24 24 25 25 24 22 22 23 22 21 21 20 20 21 20 19 20 19 17 16 16 15 14 14 15 15 14 14 13 13 14 15 16 15 14 13 13 14 15 15 15 16 17 17 15 14 13 15 15 14 15 16 16 14 13 12 13 13 13 13 13 12 12 11 12 13 13 13 13 11
18 21 22 20 20 23 26 26 25 24 24 24 24 24 24 24 24 24 25 25 23 22 23 24 23 22 22 22 21 20 19 20 20 19 17 17 16 16 15 16 17 16 15 15 15 15 16 16 15 15 15 14 15 16 16 15 15 17 18 17 17 18 20 20 19 19 19 18 16 15 14 14 14 15 14 13 13 13 14 15 14 11 10 11 11
18 20 20 19 20 23 26 28 27 25 24 24 24 23 24 24 24 24 24 24 24 23 22 23 24 23 23 23 23 21 20 19 19 20 19 17 16 17 17 16 17 17 17 16 16 15 15 16 16 16 16 16 17 17 17 16 16 16 17 17 17 19 20 20 20 21 21 19 18 17 17 16 16 14 11 10 12 15 17 17 14 12 11 13 13
16 18 19 22 24 24 24 25 27 27 25 24 25 26 24 24 24 24 24 24 23 24 22 21 23 23 24 24 24 22 21 20 20 20 20 20 19 18 18 18 17 17 17 16 15 15 15 15 16 17 17 18 18 18 17 17 17 17 17 17 19 20 20 19 19 20 20 21 20 20 20 18 15 13 12 13 15 16 16 15 14 13 12 14 15
11 14 16 18 22 25 23 20 22 25 25 23 24 26 26 25 25 25 25 25 23 23 23 22 22 22 23 23 23 23 22 22 22 21 21 20 20 20 20 20 19 17 17 16 16 16 16 16 16 17 18 19 18 18 18 18 18 18 17 18 19 20 21 21 21 20 20 21 22 21 20 18 16 17 17 16 15 14 13 14 15 14 13 15 16
6 10 11 10 12 19 22 20 19 22 25 25 23 24 23 23 25 26 25 25 24 22 23 23 23 22 22 22 23 22 23 23 23 23 22 21 21 21 22 21 21 19 18 18 17 17 16 17 17 17 18 20 20 20 19 19 19 19 19 19 19 20 21 22 23 23 22 22 23 22 21 21 20 19 18 16 14 14 14 15 15 13 12 15 18
3 4 6 8 7 12 17 19 19 20 21 23 25 26 23 20 22 25 26 26 25 24 22 22 23 22 21 21 22 23 23 23 23 25 24 23 22 22 23 23 22 21 20 20 20 19 18 17 17 18 18 20 21 21 21 22 21 21 21 21 21 21 22 23 23 23 23 23 24 24 24 24 22 19 17 16 15 15 14 15 14 13 13 18 22
3 3 5 7 8 11 13 14 17 20 19 15 16 23 26 25 24 21 20 21 23 24 24 23 23 23 22 21 21 22 23 22 22 24 26 26 25 24 24 24 24 24 23 22 22 21 21 20 19 18 17 19 21 22 23 24 23 23 22 22 23 24 24 25 25 25 24 24 25 25 25 24 22 19 17 17 16 15 16 18 18 19 20 23 25
4 4 6 7 7 9 11 12 14 18 19 15 13 15 20 24 25 23 21 19 17 20 22 23 23 23 23 23 21 21 22 22 22 23 24 26 27 26 26 25 25 25 24 24 23 22 22 22 22 21 19 19 19 21 24 24 24 23 22 21 22 24 26 28 29 29 29 28 28 28 27 26 25 23 21 20 20 21 22 23 23 24 25 25 24
7 6 5 6 8 9 11 11 10 10 11 14 17 17 16 17 21 22 22 22 19 19 19 21 23 23 24 25 25 23 22 21 22 23 23 24 25 26 27 27 26 25 25 24 24 23 23 23 24 25 24 23 22 21 22 23 24 25 24 24 24 25 26 28 30 32 33 33 33 33 31 30 29 28 27 26 26 26 26 27 27 26 26 24 24
10 9 9 8 7 9 10 12 11 10 9 8 10 12 13 14 17 18 17 17 19 21 20 21 24 26 26 27 29 30 27 23 21 21 21 22 23 23 24 26 27 27 26 25 25 25 25 24 25 25 26 26 25 25 24 24 24 25 26 27 28 29 28 28 29 31 33 34 35 35 33 32 32 31 30 29 29 29 29 29 28 27 26 26 26
14 13 14 14 10 7 8 10 11 13 13 11 8 7 8 11 14 16 15 15 15 17 20 22 24 25 26 27 29 31 31 30 28 24 20 19 21 23 24 24 26 27 27 27 27 27 27 27 27 27 27 27 27 27 26 26 26 27 28 30 32 34 34 32 30 30 31 32 34 34 34 33 32 32 31 31 31 30 30 30 29 28 28 29 30
17 17 16 17 15 11 9 10 10 10 12 13 13 12 11 10 10 12 14 16 16 17 20 23 24 24 25 27 27 28 29 29 30 29 27 23 22 24 26 27 27 28 29 29 29 29 30 30 30 30 31 31 31 30 29 28 29 30 30 32 34 36 37 36 34 33 32 32 32 32 33 32 32 31 30 30 30 30 30 31 31 30 29 30 31
17 17 17 18 17 14 13 13 12 10 10 10 12 14 14 12 9 9 12 14 16 18 20 22 24 25 25 26 27 28 28 27 27 29 30 29 27 27 28 30 32 32 33 33 32 31 31 32 33 33 34 35 35 34 33 32 33 33 34 34 35 37 38 36 35 35 35 34 33 32 31 31 30 29 28 28 28 27 29 31 31 31 32 32 32
17 17 16 17 17 15 13 13 12 12 11 10 10 11 12 12 11 9 10 11 14 17 18 20 22 24 25 26 27 27 27 27 27 28 29 30 31 30 30 32 34 35 35 35 34 33 32 31 32 34 36 38 38 38 37 36 36 37 38 37 38 40 40 38 36 36 36 35 34 33 33 33 32 31 30 29 28 28 30 31 30 31 33 35 34
19 18 17 16 16 16 15 13 11 13 14 12 9 10 11 12 14 13 12 12 13 15 17 18 20 22 24 25 27 27 27 27 26 26 26 28 30 31 31 32 34 35 34 34 34 34 33 32 32 32 34 36 38 39 40 40 40 40 40 39 41 43 42 39 38 38 37 36 36 36 35 35 33 32 32 31 31 32 32 31 30 30 32 33 33
21 20 19 17 15 15 16 14 12 11 13 12 11 10 9 11 13 16 16 16 16 17 20 21 21 22 22 22 24 26 27 27 25 24 24 26 28 30 31 32 32 33 33 33 34 34 33 33 33 34 33 34 35 36 37 39 40 42 42 43 45 46 44 42 41 40 39 38 38 37 37 36 35 35 35 36 36 36 34 33 32 30 31 33 33
21 22 21 18 16 15 15 15 14 11 10 11 13 12 11 11 11 11 13 14 16 18 22 24 25 26 24 22 22 23 24 26 26 25 25 25 26 28 30 31 30 31 32 33 33 34 34 33 32 32 33 33 33 32 33 33 34 37 40 42 44 45 45 45 44 43 42 41 39 37 36 36 36 36 36 36 36 35 34 34 32 30 29 29 29
18 20 20 18 17 16 14 14 15 13 10 10 13 15 13 12 11 10 9 11 13 15 18 21 24 27 27 26 24 23 23 23 24 26 26 26 25 26 28 29 28 29 32 34 33 33 33 32 30 30 32 33 34 34 33 32 31 33 34 35 38 41 43 46 46 45 44 44 42 41 39 37 37 36 36 35 33 32 31 30 30 30 28 27 27
14 15 17 18 17 15 12 13 14 11 10 11 14 14 15 15 13 12 12 12 12 13 14 15 18 22 25 26 25 24 24 23 23 24 24 25 26 25 26 27 27 28 30 33 34 33 33 32 32 32 34 36 36 37 37 34 32 32 33 32 31 34 38 42 45 46 46 45 45 45 44 42 41 39 38 36 34 32 30 29 29 30 31 30 30
12 14 17 17 16 14 13 12 10 9 11 13 12 12 14 15 15 16 17 15 12 11 12 13 15 17 19 20 21 22 23 23 22 22 23 24 26 26 27 28 28 28 30 32 33 34 35 36 35 34 36 37 38 39 39 38 35 34 34 32 29 29 33 37 40 43 46 47 47 48 48 48 46 45 43 40 38 35 33 32 31 31 32 32 33
12 14 15 15 15 15 13 10 9 11 12 10 9 11 13 13 13 15 17 17 13 12 12 14 16 17 17 16 16 18 20 21 21 21 23 24 25 27 28 29 29 29 30 31 32 33 35 36 34 34 34 36 37 39 40 40 39 37 35 33 30 30 32 35 36 39 43 46 47 49 50 49 48 47 46 45 45 43 41 39 37 35 35 34 35
12 12 13 13 15 14 11 10 10 11 10 9 11 13 15 14 13 13 15 17 18 17 16 14 15 17 18 17 16 16 16 17 18 19 21 24 25 26 27 29 29 30 30 31 31 31 32 31 31 31 32 33 36 39 40 40 40 39 37 35 34 33 33 35 37 39 41 43 46 48 49 49 48 47 47 47 47 48 46 45 44 43 41 39 38
12 12 13 13 14 12 10 10 10 9 9 11 12 13 15 16 16 16 16 19 22 23 21 19 16 15 16 17 18 18 16 15 15 16 17 19 21 23 26 27 27 28 29 29 29 29 29 30 29 28 29 30 34 37 39 40 40 40 39 37 35 34 33 34 38 41 42 43 45 46 48 48 48 48 48 47 48 48 46 45 45 45 43 41 41
12 13 13 12 12 11 10 10 10 11 11 12 12 13 16 18 20 20 18 17 20 22 24 22 18 16 15 15 16 18 17 15 16 17 17 17 17 20 22 24 25 26 26 25 25 27 29 31 28 24 23 26 28 31 34 37 39 39 39 37 35 33 33 34 37 42 44 46 48 49 49 48 48 48 48 48 49 49 46 44 44 43 41 40 41
14 13 13 12 11 10 10 11 12 12 13 13 14 17 19 20 21 21 20 18 18 20 23 23 20 18 16 13 11 14 15 14 15 18 21 23 23 23 22 22 23 23 22 21 23 26 28 29 27 23 22 22 22 21 24 28 33 36 38 37 35 34 33 32 33 36 39 41 45 49 50 50 50 49 48 49 50 49 46 45 43 42 40 40 41
15 14 14 13 11 10 10 12 13 14 14 13 15 18 21 22 21 21 21 21 21 21 22 23 22 21 19 15 10 10 12 11 12 14 18 23 27 27 26 25 24 24 24 24 26 27 28 29 29 28 26 24 20 18 18 20 24 30 35 38 37 36 35 33 31 31 32 35 39 43 46 49 51 51 50 50 50 48 46 44 42 41 41 41 42
15 14 13 11 12 13 13 14 15 15 15 13 13 16 19 22 22 21 21 22 23 23 23 23 23 22 21 18 14 12 10 10 10 11 14 18 22 25 27 27 27 26 27 29 32 32 32 34 35 33 31 28 25 24 24 23 23 26 29 34 36 37 37 35 33 31 32 34 38 43 46 46 47 50 51 50 49 47 45 43 42 41 42 42 44
13 13 12 10 11 14 14 14 14 15 15 14 14 14 16 19 22 23 23 23 24 24 25 25 23 21 19 19 19 17 14 10 9 10 12 14 17 21 23 25 26 27 28 32 35 36 36 38 39 38 36 34 33 32 30 29 29 28 29 31 33 34 35 35 34 34 35 35 39 46 50 48 45 45 46 46 47 47 46 45 43 42 41 42 44
13 14 13 11 10 11 11 12 14 15 15 14 14 14 15 18 21 24 24 24 24 24 24 24 22 20 20 20 21 22 20 16 12 11 11 12 14 17 20 22 25 27 29 31 35 37 37 39 41 41 40 39 38 38 36 34 34 35 35 35 34 35 35 35 35 37 38 39 42 48 52 51 47 43 42 41 41 43 45 45 44 42 42 42 43
12 12 10 9 9 9 10 11 13 13 15 17 17 18 20 21 22 23 22 21 21 22 23 21 21 21 22 21 19 20 22 21 17 13 12 13 15 16 18 20 23 26 29 30 32 34 35 37 39 40 40 40 40 40 38 35 35 37 39 38 36 36 36 37 37 39 40 43 46 49 52 53 50 46 42 40 38 39 40 41 41 42 42 42 43
13 12 11 11 11 11 12 13 15 15 18 21 22 21 21 21 20 19 18 18 19 20 21 21 20 21 22 20 16 17 21 23 21 17 16 17 18 17 17 19 21 24 26 28 30 31 33 34 35 36 36 36 37 38 38 35 33 34 36 37 37 37 38 39 39 40 41 46 51 52 52 54 52 47 43 41 39 39 39 39 39 39 40 40 41
15 16 16 15 15 15 16 16 16 18 19 20 20 20 19 19 18 17 17 18 19 20 21 20 19 19 19 17 15 18 23 24 22 20 20 20 20 18 17 18 20 22 23 25 27 29 31 31 32 33 33 33 33 35 36 36 35 35 35 36 37 39 39 39 40 40 43 50 55 55 51 50 49 46 44 43 41 39 39 39 39 39 39 39 39
14 15 15 15 17 18 17 16 15 16 18 18 17 17 18 18 18 17 17 18 18 19 19 19 18 17 18 17 18 22 24 24 22 20 20 20 21 20 18 17 18 20 22 23 22 23 25 27 28 29 30 30 30 32 33 33 33 33 34 36 38 39 38 37 38 41 45 51 55 53 48 44 40 38 37 37 36 37 37 38 38 39 38 38 39
13 13 13 15 16 17 16 16 16 17 18 18 17 17 18 18 18 17 17 17 17 17 17 17 17 17 18 21 23 25 26 25 23 21 20 21 21 21 19 18 17 17 19 20 20 19 20 22 23 25 26 26 28 30 31 32 33 33 33 33 33 34 35 36 36 39 44 48 49 46 39 33 29 28 29 32 35 38 38 38 39 39 38 38 38
15 15 15 16 18 19 20 19 18 18 18 18 17 17 18 19 19 18 18 18 19 18 17 17 16 16 18 22 25 26 27 27 24 21 20 21 21 21 22 21 20 20 21 21 22 22 22 22 22 24 26 28 29 28 28 29 31 33 34 33 31 30 33 36 37 39 41 43 42 40 36 32 30 30 32 35 38 39 39 39 40 40 40 41 40
15 16 16 17 18 19 20 19 18 17 17 18 18 19 19 19 19 19 19 19 19 19 19 18 16 15 18 23 26 27 28 28 25 21 20 21 22 23 23 23 23 24 25 25 26 27 27 27 26 26 27 29 31 31 28 27 28 30 32 33 32 32 33 34 35 37 39 39 38 38 37 36 35 34 32 32 34 36 37 38 39 40 41 42 43
16 16 16 17 17 17 18 18 18 17 18 18 19 20 20 20 20 19 19 20 20 20 20 20 18 15 18 22 25 27 29 29 25 21 19 20 22 23 24 24 24 26 27 28 29 30 31 31 31 30 29 30 31 32 31 30 29 28 27 26 25 28 31 31 30 30 30 29 29 30 31 32 34 35 33 31 31 34 36 36 36 38 42 43 42
17 17 17 17 17 17 18 18 19 19 18 18 19 21 21 21 21 20 20 21 21 20 20 20 18 17 19 21 23 25 26 25 22 20 20 22 23 24 24 25 26 27 28 29 30 32 33 33 33 33 33 32 32 33 33 32 32 31 29 26 24 25 28 29 28 27 24 22 21 22 24 27 31 32 32 30 29 31 34 36 37 39 41 40 39
17 17 17 17 17 17 18 18 18 18 19 19 20 22 22 22 21 20 20 20 20 19 19 19 18 19 20 20 20 20 20 20 21 22 22 22 23 23 24 25 27 29 29 29 30 33 35 35 35 35 35 34 34 34 34 34 35 35 35 34 32 30 29 30 31 31 30 28 26 26 27 27 28 28 28 28 26 25 28 31 33 35 38 39 39
17 18 18 18 18 18 18 18 18 18 19 19 20 20 20 20 20 20 19 19 19 18 18 19 18 18 18 18 18 18 18 19 22 25 24 23 23 24 24 25 26 28 29 29 30 32 34 36 37 37 37 37 37 36 36 36 36 36 36 37 37 37 36 36 37 38 38 37 36 35 34 34 33 32 32 32 29 26 26 26 27 29 32 34 37
18 18 18 18 18 18 17 17 18 18 19 19 19 19 20 20 20 20 19 19 20 20 20 21 20 19 18 16 15 16 18 20 22 24 25 25 24 24 24 24 25 26 28 29 29 30 32 34 35 36 37 38 39 39 39 39 39 38 38 38 39 40 40 41 41 42 43 43 42 41 41 41 41 40 40 40 39 37 35 33 32 31 31 32 34
19 19 18 18 17 17 17 17 17 18 19 19 19 20 20 20 20 20 20 20 21 21 21 19 18 16 15 14 15 17 21 23 25 25 25 25 25 24 23 23 24 24 25 27 28 29 29 30 32 33 35 36 37 37 38 39 40 40 41 41 41 42 42 43 43 43 44 44 44 44 44 44 44 44 45 45 45 44 44 43 42 41 39 37 37
18 17 17 17 16 17 17 17 17 18 18 18 19 19 20 19 19 19 19 20 21 21 20 18 17 16 16 18 19 22 23 25 25 24 22 23 24 25 23 22 23 23 23 25 27 27 27 28 28 30 31 32 33 34 35 35 36 38 38 40 41 42 44 45 45 45 46 46 47 47 47 47 47 47 47 47 47 47 47 47 47 47 47 45 43
17 16 16 16 17 17 18 18 18 18 18 18 18 19 19 19 19 19 19 20 20 20 20 19 19 19 19 19 21 22 23 24 24 22 20 22 24 25 23 21 21 20 20 22 24 24 24 24 24 25 26 28 29 29 29 30 31 32 33 34 36 37 39 41 43 44 45 46 47 47 48 48 48 48 48 47 46 46 48 48 49 49 49 50 49
15 15 15 16 17 18 19 20 20 19 18 18 18 18 18 19 19 19 20 20 19 19 18 17 16 16 17 18 20 22 23 24 23 22 21 23 24 23 21 20 20 19 18 19 20 20 20 20 18 19 20 22 23 23 23 23 24 25 26 27 28 29 30 32 33 35 37 38 39 40 41 42 42 42 42 41 40 40 41 43 44 45 45 47 47
14 15 16 16 16 17 18 19 19 19 18 18 18 18 18 18 18 18 18 18 17 17 17 16 16 17 18 20 21 22 22 22 22 21 22 23 23 20 18 18 19 18 16 15 14 15 15 14 14 13 14 15 16 16 17 18 18 18 19 20 21 22 23 24 25 26 27 29 31 32 32 32 32 32 32 32 31 31 31 32 34 35 37 38 40
Wind_Direction
213 217 217 217 216 219 223 220 219 219 212 207 213 215 212 209 207 207 209 210 207 207 210 211 212 213 210 208 209 214 220 211 203 205 203 206 211 209 215 219 218 222 222 220 211 213 238 241 229 228 228 225 218 206 216 250 254 225 206 228 245 236 229 229 231 236 231 231 242 236 238 256 259 272 284 294 307 309 316 326 338 354 344 327 319
214 217 220 220 218 219 225 225 222 222 218 211 211 215 216 213 209 207 210 211 210 212 215 212 211 215 213 210 206 209 225 229 214 212 211 208 212 215 219 222 221 222 225 225 219 212 223 238 243 240 236 235 228 217 216 229 249 257 239 226 234 238 242 248 247 246 243 241 241 238 248 267 269 267 278 297 308 309 320 328 339 354 329 308 311
215 216 219 221 220 220 223 226 226 226 222 216 214 215 217 217 213 209 209 212 211 211 218 218 214 215 213 210 209 205 216 232 227 219 219 216 215 216 219 228 233 230 227 232 232 224 223 232 242 246 241 242 240 230 222 216 225 248 259 257 254 239 239 260 266 261 257 250 245 242 243 259 265 264 278 297 307 313 321 322 327 331 306 295 307
215 216 217 218 219 222 223 223 225 227 223 218 217 216 216 218 219 214 209 212 215 212 215 218 218 219 214 210 214 212 209 221 228 223 222 224 223 219 215 222 238 241 234 234 238 237 236 239 244 245 237 240 251 246 233 219 214 220 232 250 263 250 236 252 265 265 260 253 249 249 246 252 260 271 287 296 300 304 306 308 315 316 306 303 309
216 217 218 220 221 223 225 224 224 225 222 218 219 219 217 217 221 221 214 211 216 217 216 215 217 223 221 214 218 222 215 215 223 225 224 226 229 227 220 219 228 239 240 238 240 243 246 247 248 248 238 233 243 251 248 234 221 220 221 224 235 237 231 234 245 255 258 256 253 253 256 262 271 282 292 297 299 297 295 300 305 301 297 301 308
215 213 215 222 226 228 230 227 224 226 225 221 221 221 219 219 219 222 220 215 214 219 221 219 216 220 226 223 221 227 226 221 224 227 227 228 232 234 232 228 230 236 239 240 242 242 246 250 251 251 247 239 237 245 253 249 235 229 227 225 229 236 237 237 240 247 255 261 262 261 263 271 280 288 295 300 299 298 302 308 310 307 300 300 306
214 210 211 215 223 229 232 229 227 230 231 228 226 224 222 221 220 221 223 221 216 217 221 224 221 219 224 228 226 227 230 230 229 230 229 227 231 236 237 236 237 241 242 242 244 245 245 249 252 252 251 248 243 242 247 252 249 240 234 233 236 241 246 249 250 252 255 260 265 267 268 274 282 291 298 296 291 295 302 306 312 321 318 311 315
217 218 219 219 220 223 228 233 234 234 234 235 234 230 227 225 223 224 226 225 220 217 218 223 226 224 222 226 227 226 230 234 233 234 234 229 228 233 239 240 239 242 247 248 248 248 248 250 253 254 255 255 254 251 248 249 254 252 247 241 239 240 243 246 251 256 260 262 264 267 272 276 278 277 274 273 279 289 298 304 314 319 310 303 311
221 221 225 227 225 226 232 241 241 236 239 245 241 232 231 232 228 226 228 227 224 221 219 220 226 229 228 228 228 226 227 235 238 237 238 236 232 231 236 242 241 237 241 247 248 248 248 248 249 252 257 261 264 264 258 252 251 254 256 255 252 249 246 244 245 249 256 261 264 267 270 271 267 266 271 278 288 298 304 304 304 300 294 296 305
238 224 234 244 232 229 235 242 244 242 243 246 240 230 232 238 236 232 231 230 228 227 224 220 224 230 233 233 234 230 227 231 240 243 243 242 241 236 234 240 245 241 235 238 244 247 249 250 251 252 256 262 269 273 272 266 259 254 253 255 257 258 257 255 252 249 249 254 258 260 261 261 263 269 279 288 294 297 297 295 294 292 290 294 298
274 235 261 281 256 231 230 234 246 258 255 247 241 236 241 257 256 243 236 233 231 231 230 225 222 227 233 234 235 235 232 230 236 245 249 247 246 243 239 238 242 245 242 237 238 242 245 249 253 255 257 261 266 272 275 276 273 267 259 255 254 255 257 259 259 256 253 252 255 257 258 262 268 272 276 279 279 281 281 279 281 279 277 283 290
302 260 269 279 261 245 241 239 252 266 270 268 256 244 248 268 277 266 254 247 238 233 234 232 227 226 229 233 234 237 239 237 236 242 250 252 251 249 246 241 239 242 246 244 243 244 245 246 249 252 256 260 264 267 268 272 277 278 274 266 260 256 254 255 258 260 259 257 257 259 261 264 268 268 268 269 269 268 265 264 266 269 274 282 288
334 294 276 267 256 253 251 251 260 266 266 274 285 272 259 262 267 271 281 280 254 234 234 236 235 233 232 232 234 238 243 247 247 246 249 255 256 254 251 247 241 240 244 247 248 248 249 250 251 250 251 254 261 269 272 275 279 282 283 279 271 264 258 256 257 259 260 261 260 261 264 266 266 265 263 261 261 263 266 270 274 278 283 287 290
16 3 336 289 265 262 260 260 273 285 270 262 272 279 273 259 251 256 274 280 262 242 236 233 233 236 235 233 234 236 240 249 256 256 256 258 259 259 258 254 247 243 243 245 248 249 250 253 256 257 256 254 256 263 272 276 278 279 279 279 277 274 268 263 260 260 261 262 263 264 266 267 267 269 269 267 267 270 274 279 282 285 289 290 290
23 25 23 1 304 281 283 281 283 291 286 270 272 274 266 256 250 247 249 251 247 242 240 237 234 232 231 231 231 230 230 236 248 257 261 261 260 261 262 260 255 249 245 245 248 250 251 252 255 258 261 262 261 260 262 266 270 273 274 275 276 276 275 272 269 268 267 267 269 271 272 272 272 273 274 274 274 276 279 283 284 286 287 286 286
27 29 29 22 3 333 318 310 300 293 285 279 286 289 269 257 257 254 243 233 234 239 240 243 243 239 236 236 236 235 232 230 233 239 247 257 259 258 257 258 259 256 253 249 247 248 250 252 254 255 256 259 261 262 261 261 263 266 269 272 275 277 278 279 278 276 275 273 274 275 277 278 277 277 277 276 276 278 280 281 281 282 283 284 286
21 21 23 22 20 21 14 355 340 321 302 287 279 281 285 279 267 260 253 245 241 243 241 241 243 244 243 243 242 244 242 239 238 239 239 243 251 255 255 255 257 259 260 259 255 251 249 249 251 254 255 255 256 258 260 260 260 261 263 267 271 274 278 281 282 282 282 280 279 279 279 279 279 278 278 276 276 277 275 272 274 275 276 278 282
12 12 13 13 17 27 25 10 3 355 336 316 295 282 282 285 276 261 260 261 258 255 250 247 245 243 243 244 243 245 247 245 244 243 241 239 242 248 253 255 256 258 260 263 263 261 257 254 252 253 255 256 257 256 256 258 259 261 262 263 265 268 271 275 278 281 284 284 283 283 282 280 279 278 276 274 273 272 269 269 272 271 267 268 273
1 4 6 5 9 19 17 8 11 14 3 346 321 299 284 278 274 266 264 269 272 270 266 260 254 247 244 244 244 245 247 247 246 245 242 240 240 242 246 249 253 256 258 260 263 264 264 262 259 256 256 257 258 258 258 258 259 261 263 263 264 266 269 269 271 274 277 279 280 280 280 280 279 278 276 275 273 271 269 270 272 270 266 268 271
346 351 357 359 2 7 5 2 13 14 3 357 350 329 305 284 275 274 277 277 270 268 270 270 266 259 253 249 246 246 248 249 249 248 245 243 242 242 243 244 248 252 255 258 261 262 264 264 263 262 261 260 261 262 262 261 261 261 262 262 263 268 271 269 269 270 272 273 275 276 276 277 276 275 274 272 272 272 272 271 271 269 267 269 271
338 341 346 352 356 357 354 356 8 6 349 345 353 351 332 307 286 274 274 277 271 264 266 269 270 268 265 259 254 251 249 248 249 249 248 247 246 247 248 249 250 252 254 257 260 261 262 264 264 264 264 264 264 265 265 266 266 265 264 264 267 272 273 270 269 270 270 271 272 273 273 274 273 272 272 272 272 272 272 271 270 268 267 269 271
336 335 338 345 351 354 355 353 354 353 343 336 340 344 343 337 322 295 276 275 273 266 264 266 269 270 269 266 263 260 256 251 248 248 248 249 250 249 250 254 256 254 253 256 259 261 263 265 266 266 265 264 263 263 263 266 268 268 269 270 271 272 272 271 270 269 269 270 270 268 269 270 270 271 271 272 273 274 274 275 276 274 270 269 271
333 332 335 338 344 354 360 353 346 347 346 335 328 331 338 343 340 332 320 307 296 285 276 272 272 271 268 265 264 263 261 256 252 250 249 249 251 251 251 254 256 253 252 254 256 259 261 262 262 262 261 261 262 263 263 263 264 267 269 272 274 274 272 270 269 268 268 268 267 265 264 264 265 266 267 267 269 270 272 276 281 282 280 277 276
329 328 328 331 339 348 350 348 350 350 339 324 319 324 336 341 339 338 336 325 313 309 304 293 284 278 273 269 265 262 261 261 259 255 250 247 249 251 252 253 253 252 254 255 256 258 259 258 259 261 261 259 260 263 264 263 263 267 267 267 271 275 272 269 267 266 266 266 265 264 263 262 261 261 262 263 264 265 266 267 269 274 277 278 277
319 321 324 329 335 338 340 346 345 330 323 328 330 328 330 333 333 333 332 327 316 309 304 293 287 286 283 278 272 265 262 263 262 259 255 250 248 249 251 252 253 253 254 255 255 256 258 259 261 264 264 262 259 260 262 262 263 267 267 265 265 268 269 269 267 265 264 263 263 263 264 263 262 261 260 260 259 259 260 261 261 262 264 267 270
307 311 319 325 328 331 338 340 326 321 330 339 335 322 314 312 317 324 327 325 314 300 293 286 282 284 286 283 276 266 261 261 261 260 259 255 251 250 251 253 255 255 254 255 256 255 256 259 263 265 265 263 260 258 260 261 263 264 263 262 261 262 265 268 268 265 264 264 263 262 263 263 264 264 262 260 258 258 258 258 259 258 257 259 262
302 305 310 316 323 330 335 331 324 329 335 325 317 319 317 311 309 311 310 307 303 304 306 302 291 286 285 286 285 278 271 266 262 261 263 264 262 259 256 254 254 253 253 256 259 260 261 263 265 265 264 262 259 257 257 258 260 261 260 259 261 261 261 265 269 270 269 267 266 265 264 263 262 262 262 262 262 262 262 261 260 259 258 258 259
300 302 304 309 319 327 329 325 322 320 320 319 320 321 318 311 306 304 304 303 303 307 311 312 308 300 291 288 291 291 284 273 266 266 270 273 271 266 260 255 252 253 254 257 259 261 261 261 259 259 260 261 259 256 254 254 256 259 259 257 259 261 261 263 267 271 272 272 270 268 266 264 261 260 260 261 263 264 264 263 262 262 262 260 258
301 298 299 305 316 322 319 318 317 312 312 317 314 306 304 306 307 308 309 307 305 307 308 308 311 310 301 295 297 298 292 282 274 269 265 265 267 267 263 259 256 255 256 258 259 258 256 254 252 254 260 262 259 255 253 253 255 257 258 258 259 261 262 263 265 269 272 273 271 269 266 264 261 259 258 258 260 261 262 262 262 263 263 260 258
303 297 296 301 307 310 310 314 316 313 311 312 309 304 302 303 304 307 310 309 307 309 311 310 309 306 301 299 304 306 302 294 281 270 263 260 261 262 261 261 263 263 263 263 262 260 258 255 253 255 260 261 258 257 257 258 259 259 261 263 264 265 265 266 268 271 273 273 271 268 265 262 259 258 257 256 257 259 258 258 258 259 259 257 257
302 295 293 295 296 297 311 322 319 314 312 312 310 309 308 305 304 305 309 311 310 311 312 312 311 307 299 294 296 305 309 305 289 275 267 264 262 261 260 259 261 264 266 265 262 262 265 266 263 261 261 261 261 265 271 272 269 266 264 264 266 266 265 264 265 268 272 274 273 271 267 261 258 256 255 255 256 257 257 256 255 254 254 254 255
304 297 287 285 283 280 292 310 315 313 315 315 311 310 311 308 306 305 307 308 310 312 312 312 314 311 303 295 290 291 299 307 299 285 273 265 261 261 261 259 256 257 260 262 262 263 268 273 272 269 267 267 269 274 274 272 272 272 270 267 266 264 263 264 263 263 264 267 269 270 269 264 260 256 254 254 254 255 255 254 252 251 251 252 253
298 290 278 279 284 280 285 299 309 311 314 314 311 311 311 308 306 305 306 307 309 311 312 313 315 314 307 300 296 293 293 297 297 292 283 270 264 265 265 262 256 252 252 256 260 263 268 273 276 275 273 271 272 274 271 267 269 274 277 275 272 267 265 266 265 263 263 264 265 265 264 263 261 258 256 254 253 253 253 253 251 250 250 250 252
284 282 281 288 295 293 296 305 307 305 303 299 296 296 298 300 301 302 305 307 309 311 314 316 316 314 310 309 307 304 299 292 284 284 288 282 274 272 272 270 263 256 251 252 256 260 263 268 272 275 276 276 275 274 272 271 273 277 279 279 277 272 268 266 264 262 263 265 264 260 257 256 256 256 256 255 253 252 252 252 251 249 248 248 250
286 286 292 302 305 303 301 299 298 296 291 287 286 288 292 295 297 299 302 305 308 311 313 314 313 309 309 313 315 306 298 292 285 282 288 290 283 276 276 276 272 265 259 255 254 256 260 263 267 271 274 277 279 280 278 275 274 275 276 276 273 269 265 263 262 261 260 260 260 257 252 249 250 252 252 252 253 252 252 252 251 249 248 248 249
297 295 298 302 305 304 298 291 288 287 286 288 293 298 300 300 300 301 302 302 303 303 302 303 306 307 308 314 315 301 294 298 299 295 293 292 287 280 279 281 280 277 272 264 259 257 257 259 262 266 270 275 281 284 284 279 275 273 272 270 268 265 262 260 261 261 259 258 258 255 248 245 246 248 249 249 251 252 253 253 253 251 250 248 248
298 299 301 300 298 294 291 290 291 289 290 295 302 306 306 305 302 301 299 295 295 295 296 300 305 307 308 310 303 291 293 302 305 301 298 294 287 280 278 279 279 279 279 275 269 265 262 260 260 262 265 270 277 282 283 281 279 277 272 267 266 265 264 263 265 265 262 258 255 251 246 243 245 247 247 248 249 250 251 253 253 252 251 250 249
303 304 306 304 300 295 293 293 293 292 294 299 302 300 298 297 297 296 294 292 292 294 296 299 300 302 304 300 290 287 294 301 302 301 301 298 292 285 278 275 276 279 280 278 277 276 273 269 265 264 267 272 277 280 280 279 279 280 276 271 269 270 270 270 271 269 265 259 254 250 247 246 247 247 247 248 252 254 255 255 254 254 253 253 251
309 302 295 290 289 290 289 289 290 292 294 297 296 294 293 295 295 294 292 291 291 292 294 296 297 300 300 295 290 290 294 298 302 304 302 300 299 293 282 271 269 273 274 273 272 273 273 271 268 265 265 268 272 275 274 272 272 275 276 275 274 274 274 273 271 267 264 260 257 256 256 257 259 261 261 262 264 265 263 260 259 260 259 258 257
310 303 294 285 281 280 279 280 286 294 298 298 296 293 292 292 292 291 291 289 288 289 291 292 293 295 294 290 289 289 290 291 298 303 301 297 297 295 287 276 266 259 255 254 256 259 260 261 261 260 258 259 261 264 266 266 265 265 268 269 269 268 267 267 266 264 264 264 266 268 271 274 275 274 271 269 269 269 268 266 265 266 265 263 262
312 309 305 300 295 291 289 289 291 293 292 292 292 291 290 289 288 289 290 289 286 286 286 283 282 289 293 289 285 284 285 288 293 298 298 294 292 291 291 286 277 267 259 254 252 254 255 255 257 258 257 256 257 258 260 262 263 263 264 265 265 263 262 263 264 264 267 271 275 276 276 276 275 274 273 271 270 270 270 270 271 272 272 270 266
312 311 309 307 306 305 302 300 297 291 287 288 290 289 288 287 285 284 284 283 282 284 285 283 282 287 291 289 286 284 284 288 292 293 290 289 290 291 291 288 282 277 273 266 259 257 256 255 255 256 257 257 257 257 257 260 263 264 264 263 262 261 262 263 264 266 269 274 280 281 279 276 274 273 273 273 271 270 271 272 274 275 274 271 269
311 311 307 304 304 305 303 301 299 297 293 290 287 284 284 285 286 286 283 281 282 285 288 288 286 284 281 280 282 286 288 290 290 288 285 286 290 292 290 286 281 278 277 273 267 263 261 258 257 257 258 258 259 258 257 259 261 263 263 262 261 262 265 266 266 266 267 268 273 279 280 278 276 276 274 274 274 276 276 275 275 275 273 271 270
311 312 309 305 303 303 302 302 301 299 294 289 285 285 286 287 288 287 285 283 283 284 284 284 284 282 277 274 275 281 287 287 286 287 289 290 291 291 289 286 282 278 276 274 271 268 265 262 260 259 259 258 259 259 259 259 261 263 264 265 264 263 263 263 263 264 265 265 267 271 274 275 276 278 276 275 275 278 280 279 278 276 274 273 273
312 310 309 307 305 303 302 302 300 298 296 294 293 292 291 290 287 284 282 281 282 283 282 281 280 280 283 284 280 280 281 282 285 291 295 294 292 292 290 287 283 280 277 275 273 270 268 266 264 263 262 261 261 261 261 260 262 263 265 267 267 265 263 262 262 264 267 269 270 270 270 270 273 275 275 276 275 274 275 277 279 279 279 278 276
313 311 308 306 306 304 302 300 299 298 298 298 297 295 293 290 286 283 280 279 281 284 284 281 278 279 285 288 283 277 276 280 286 293 297 297 295 293 291 288 285 281 279 277 276 273 271 270 269 268 267 265 264 264 264 263 263 263 264 265 267 267 266 265 264 266 269 272 273 273 272 272 273 273 275 277 277 276 275 275 275 277 280 281 280
311 309 307 304 303 302 299 299 300 299 298 298 297 295 293 289 286 285 283 282 282 283 282 279 277 277 278 278 274 273 277 282 288 293 295 295 295 294 293 290 287 283 279 278 278 276 274 273 273 272 272 271 270 270 270 268 267 265 264 264 265 266 267 267 268 270 272 274 276 278 278 277 276 276 276 277 277 277 278 277 277 277 279 279 280
309 306 305 304 303 300 297 297 300 300 298 298 296 293 291 289 288 287 285 283 281 280 277 273 271 271 270 271 273 276 281 288 293 296 294 291 292 296 298 295 291 287 283 279 278 277 276 275 274 274 275 276 276 275 275 274 272 270 268 266 266 266 267 267 268 269 271 273 275 278 279 280 280 279 279 278 278 278 278 278 278 278 279 279 279
307 305 304 302 300 297 294 295 298 301 301 299 296 292 289 287 286 285 284 284 283 280 276 274 272 271 271 271 273 277 283 289 293 293 291 288 290 296 300 298 293 290 285 281 279 279 278 278 278 278 278 278 279 278 278 277 276 275 274 272 271 269 269 268 269 269 270 271 273 276 278 279 281 281 282 281 280 279 278 277 278 278 278 278 279
308 307 305 302 301 299 296 294 295 299 301 300 298 296 292 288 285 285 286 287 285 281 276 272 271 271 271 271 273 278 283 288 289 288 287 288 292 297 298 294 291 290 288 284 281 280 279 279 278 276 274 274 275 276 276 276 276 276 275 275 273 272 271 270 271 271 273 274 275 276 277 279 280 281 281 281 281 280 279 279 279 279 278 278 278
312 309 306 304 303 302 300 298 297 297 299 299 297 296 294 290 287 287 288 287 284 280 276 271 268 270 271 273 276 281 285 288 289 288 286 288 293 297 294 289 288 290 291 287 280 276 275 274 271 269 270 272 273 274 277 278 277 276 275 273 272 271 271 270 269 269 271 273 275 275 276 277 277 277 278 278 279 278 277 276 276 276 277 277 277
Height
1553 1555 1556 1557 1558 1559 1560 1561 1562 1564 1565 1567 1569 1569 1571 1571 1572 1574 1574 1575 1576 1577 1578 1578 1579 1580 1582 1583 1584 1585 1586 1587 1588 1589 1590 1592 1593 1594 1595 1595 1596 1597 1598 1598 1599 1601 1602 1602 1602 1603 1603 1604 1604 1605 1606 1606 1606 1606 1606 1607 1607 1606 1607 1607 1607 1607 1607 1607 1607 1607 1607 1607 1607 1607 1606 1606 1605 1604 1603 1603 1602 1601 1599 1599 1599
1553 1555 1556 1557 1558 1559 1559 1560 1562 1563 1564 1566 1567 1568 1570 1570 1572 1573 1573 1574 1575 1576 1576 1577 1578 1580 1581 1582 1583 1585 1586 1586 1588 1589 1590 1591 1592 1593 1594 1594 1595 1596 1597 1598 1599 1600 1601 1601 1602 1602 1602 1603 1603 1604 1605 1605 1606 1606 1606 1606 1606 1606 1606 1606 1607 1606 1606 1606 1606 1606 1606 1606 1606 1606 1605 1604 1604 1603 1602 1602 1601 1600 1599 1598 1597
1551 1553 1555 1557 1558 1559 1560 1560 1561 1562 1563 1565 1566 1567 1569 1569 1570 1572 1573 1573 1574 1575 1575 1576 1577 1578 1580 1581 1583 1584 1585 1586 1587 1588 1589 1590 1591 1592 1593 1594 1595 1596 1597 1598 1598 1599 1600 1600 1601 1601 1602 1602 1602 1603 1604 1605 1605 1606 1606 1606 1606 1606 1606 1606 1606 1606 1606 1605 1605 1605 1605 1605 1605 1604 1604 1603 1602 1602 1601 1600 1600 1600 1599 1598 1597
1547 1550 1553 1555 1557 1559 1560 1560 1561 1561 1562 1564 1565 1566 1568 1569 1569 1570 1572 1573 1573 1574 1575 1575 1576 1577 1578 1580 1581 1583 1584 1585 1586 1587 1588 1589 1590 1591 1593 1594 1594 1595 1596 1597 1598 1598 1599 1600 1600 1601 1601 1602 1602 1602 1603 1604 1604 1605 1605 1605 1605 1606 1606 1606 1605 1605 1605 1604 1604 1604 1604 1604 1603 1603 1603 1602 1601 1601 1600 1599 1599 1598 1598 1597 1596
1545 1548 1552 1554 1555 1557 1559 1560 1561 1561 1562 1563 1564 1565 1567 1568 1569 1569 1570 1572 1573 1573 1574 1574 1575 1576 1577 1579 1580 1581 1583 1584 1585 1586 1587 1588 1589 1590 1592 1593 1594 1594 1595 1596 1597 1598 1598 1599 1600 1600 1601 1601 1602 1602 1602 1603 1603 1604 1604 1605 1605 1605 1605 1605 1605 1604 1604 1603 1603 1603 1603 1603 1602 1602 1601 1600 1600 1600 1599 1599 1598 1597 1596 1596 1595
1544 1546 1549 1550 1552 1554 1557 1558 1560 1561 1562 1563 1564 1565 1566 1567 1568 1568 1569 1571 1572 1572 1573 1573 1575 1575 1576 1577 1578 1580 1581 1583 1584 1585 1586 1587 1588 1590 1590 1592 1593 1593 1594 1595 1596 1597 1598 1598 1599 1600 1600 1601 1601 1602 1602 1602 1603 1603 1603 1604 1604 1604 1604 1604 1604 1603 1603 1602 1602 1602 1602 1601 1601 1600 1600 1599 1599 1598 1598 1597 1597 1596 1595 1594 1594
1543 1544 1546 1547 1549 1552 1554 1556 1558 1560 1563 1564 1565 1565 1566 1567 1568 1568 1568 1569 1571 1572 1573 1573 1573 1575 1576 1576 1577 1579 1580 1581 1583 1584 1585 1587 1588 1589 1590 1591 1592 1592 1593 1594 1595 1596 1597 1598 1598 1599 1599 1600 1600 1601 1602 1602 1602 1603 1603 1603 1604 1604 1603 1603 1603 1603 1602 1601 1601 1601 1600 1600 1600 1599 1599 1598 1598 1597 1596 1596 1595 1594 1593 1593 1593
1541 1543 1544 1545 1546 1549 1551 1554 1556 1557 1560 1563 1566 1566 1566 1567 1568 1568 1568 1568 1569 1571 1572 1573 1573 1574 1575 1576 1577 1578 1579 1580 1581 1583 1584 1586 1587 1588 1588 1590 1590 1591 1592 1593 1594 1595 1596 1597 1598 1598 1599 1599 1600 1600 1601 1601 1602 1602 1602 1603 1603 1603 1603 1603 1602 1602 1601 1600 1600 1600 1599 1599 1599 1598 1598 1598 1597 1596 1595 1595 1593 1592 1592 1592 1591
1540 1542 1544 1545 1545 1545 1548 1552 1555 1558 1559 1560 1562 1564 1566 1568 1568 1568 1568 1568 1569 1570 1571 1572 1572 1572 1574 1575 1576 1577 1578 1579 1580 1581 1582 1584 1585 1586 1587 1588 1589 1590 1591 1592 1593 1594 1595 1596 1597 1597 1598 1598 1599 1599 1600 1601 1601 1601 1602 1602 1602 1602 1602 1602 1602 1601 1601 1600 1599 1599 1598 1598 1598 1597 1597 1597 1596 1595 1594 1593 1592 1591 1591 1590 1589
1539 1540 1542 1544 1545 1545 1547 1551 1555 1559 1559 1559 1559 1559 1561 1565 1568 1570 1569 1569 1569 1569 1570 1572 1572 1572 1572 1573 1575 1576 1577 1578 1578 1579 1581 1582 1583 1585 1586 1586 1587 1588 1590 1591 1592 1593 1594 1595 1595 1596 1597 1597 1597 1597 1598 1599 1600 1600 1601 1601 1601 1601 1601 1601 1600 1600 1600 1599 1599 1598 1598 1597 1597 1596 1596 1596 1595 1594 1593 1592 1591 1590 1590 1588 1587
1539 1539 1539 1542 1544 1545 1546 1550 1554 1557 1557 1557 1557 1558 1559 1561 1565 1568 1569 1570 1570 1570 1569 1570 1571 1572 1572 1572 1573 1574 1575 1577 1577 1578 1579 1580 1582 1583 1584 1585 1586 1587 1588 1589 1590 1591 1592 1593 1594 1595 1595 1595 1596 1596 1596 1597 1598 1598 1599 1599 1600 1600 1599 1599 1599 1599 1599 1598 1598 1597 1596 1595 1595 1596 1595 1595 1594 1594 1593 1591 1590 1589 1588 1587 1586
1539 1540 1539 1540 1542 1543 1544 1547 1550 1552 1552 1553 1556 1558 1561 1562 1563 1563 1563 1566 1569 1569 1570 1570 1570 1571 1572 1572 1572 1572 1572 1574 1576 1577 1577 1578 1580 1581 1582 1583 1584 1585 1586 1586 1588 1589 1589 1591 1592 1593 1593 1594 1594 1594 1594 1594 1595 1596 1596 1597 1597 1598 1598 1598 1597 1597 1597 1597 1596 1596 1595 1594 1594 1594 1594 1594 1593 1592 1591 1590 1589 1588 1587 1586 1584
1539 1540 1541 1542 1542 1542 1543 1545 1547 1548 1550 1553 1555 1556 1558 1561 1564 1564 1562 1562 1562 1563 1567 1569 1570 1570 1571 1571 1572 1571 1571 1572 1573 1574 1575 1576 1577 1579 1580 1581 1582 1583 1584 1584 1585 1586 1587 1588 1589 1589 1591 1591 1592 1591 1591 1591 1592 1593 1594 1594 1594 1595 1595 1595 1595 1595 1595 1595 1594 1593 1593 1593 1592 1592 1592 1592 1591 1590 1589 1588 1588 1587 1585 1584 1582
1540 1541 1542 1543 1543 1542 1543 1544 1546 1548 1550 1553 1555 1555 1556 1557 1558 1561 1563 1564 1563 1563 1564 1565 1566 1568 1568 1568 1569 1569 1570 1570 1570 1571 1572 1573 1574 1576 1577 1579 1579 1581 1582 1582 1583 1584 1584 1585 1585 1586 1587 1588 1589 1589 1589 1589 1589 1590 1591 1591 1591 1592 1592 1592 1593 1593 1593 1592 1591 1590 1591 1591 1590 1590 1590 1590 1589 1588 1587 1586 1585 1584 1583 1581 1580
1541 1541 1542 1542 1542 1543 1544 1545 1546 1547 1549 1551 1552 1553 1554 1554 1554 1554 1556 1559 1561 1562 1563 1562 1563 1563 1564 1564 1564 1564 1565 1566 1566 1566 1568 1569 1571 1572 1574 1575 1576 1578 1579 1580 1580 1581 1582 1582 1583 1583 1583 1584 1585 1586 1587 1587 1587 1587 1587 1588 1588 1588 1588 1589 1589 1590 1589 1589 1588 1588 1588 1588 1588 1587 1587 1587 1586 1586 1585 1583 1582 1581 1580 1579 1577
1541 1541 1542 1542 1542 1543 1544 1545 1545 1545 1546 1548 1549 1549 1550 1550 1550 1551 1551 1552 1554 1557 1560 1561 1561 1561 1561 1561 1561 1561 1562 1562 1562 1563 1564 1565 1567 1568 1569 1570 1572 1573 1575 1576 1577 1578 1579 1579 1580 1580 1580 1581 1581 1582 1583 1584 1584 1584 1584 1584 1584 1584 1584 1585 1586 1586 1586 1586 1585 1584 1584 1585 1585 1584 1584 1584 1584 1583 1582 1581 1580 1579 1577 1576 1574
1542 1542 1542 1543 1543 1543 1544 1544 1544 1544 1544 1545 1545 1545 1546 1546 1547 1547 1548 1549 1551 1552 1555 1556 1557 1557 1558 1558 1558 1559 1560 1561 1562 1562 1563 1563 1564 1564 1565 1566 1567 1568 1569 1571 1572 1574 1575 1576 1576 1576 1576 1577 1578 1578 1579 1580 1581 1581 1581 1580 1580 1579 1579 1580 1581 1582 1582 1582 1582 1581 1581 1581 1581 1581 1581 1581 1581 1581 1580 1578 1577 1576 1575 1573 1571
1542 1543 1543 1543 1543 1544 1544 1543 1543 1543 1543 1543 1542 1542 1543 1544 1544 1544 1545 1546 1547 1548 1550 1551 1552 1553 1554 1554 1554 1555 1555 1556 1558 1559 1560 1562 1562 1562 1562 1563 1562 1563 1563 1565 1566 1568 1569 1571 1572 1572 1572 1572 1573 1574 1575 1576 1576 1577 1577 1577 1577 1576 1576 1577 1578 1577 1578 1578 1578 1578 1577 1577 1577 1577 1577 1577 1577 1577 1576 1574 1574 1574 1572 1570 1568
1543 1543 1543 1543 1543 1544 1544 1543 1542 1542 1543 1542 1542 1541 1541 1541 1541 1541 1541 1541 1543 1545 1547 1548 1549 1549 1550 1551 1551 1551 1552 1552 1553 1554 1556 1557 1558 1558 1559 1559 1559 1559 1559 1560 1561 1562 1563 1565 1566 1567 1567 1568 1568 1569 1570 1571 1571 1572 1572 1573 1573 1571 1572 1574 1575 1574 1574 1574 1574 1574 1573 1573 1574 1573 1573 1573 1573 1573 1572 1571 1571 1570 1568 1567 1566
1543 1543 1543 1543 1543 1543 1543 1543 1542 1542 1542 1542 1541 1541 1540 1539 1539 1538 1538 1539 1541 1543 1545 1546 1547 1547 1548 1548 1548 1548 1548 1549 1550 1551 1552 1553 1554 1554 1554 1554 1554 1554 1555 1555 1556 1557 1557 1559 1560 1561 1562 1563 1563 1564 1564 1565 1566 1566 1568 1568 1567 1566 1568 1570 1571 1571 1571 1571 1570 1570 1569 1570 1570 1569 1569 1569 1569 1568 1568 1567 1567 1566 1565 1563 1563
1542 1543 1543 1543 1543 1543 1543 1543 1542 1542 1542 1541 1540 1540 1538 1537 1536 1536 1537 1538 1539 1541 1543 1544 1545 1545 1546 1546 1545 1545 1545 1545 1546 1548 1549 1549 1550 1551 1551 1551 1551 1551 1552 1552 1552 1552 1552 1553 1553 1555 1556 1557 1558 1559 1559 1559 1560 1561 1562 1562 1561 1562 1564 1566 1566 1567 1567 1567 1566 1566 1565 1565 1565 1565 1564 1564 1564 1563 1564 1563 1563 1563 1561 1560 1559
1542 1542 1542 1542 1543 1542 1542 1542 1542 1542 1541 1540 1539 1538 1537 1536 1535 1534 1534 1535 1536 1538 1540 1541 1542 1542 1543 1543 1543 1542 1542 1542 1542 1543 1544 1545 1546 1547 1547 1548 1549 1550 1549 1548 1548 1548 1548 1549 1550 1550 1550 1550 1551 1551 1552 1553 1554 1555 1555 1556 1557 1558 1559 1560 1561 1562 1562 1562 1562 1562 1562 1561 1560 1560 1559 1559 1559 1559 1559 1558 1558 1558 1558 1557 1555
1542 1542 1542 1542 1542 1542 1542 1542 1541 1540 1540 1539 1539 1538 1536 1535 1534 1534 1533 1533 1534 1535 1536 1537 1538 1539 1539 1539 1540 1540 1539 1539 1539 1539 1540 1541 1542 1543 1543 1544 1546 1547 1546 1545 1544 1544 1545 1546 1547 1546 1546 1545 1545 1545 1544 1545 1546 1547 1548 1550 1552 1554 1555 1555 1556 1557 1557 1557 1557 1557 1557 1557 1557 1556 1556 1555 1555 1555 1555 1554 1553 1552 1552 1552 1552
1543 1542 1541 1541 1541 1541 1541 1541 1541 1540 1539 1539 1538 1537 1536 1535 1534 1534 1534 1534 1534 1534 1534 1535 1536 1536 1535 1535 1536 1536 1536 1536 1535 1535 1535 1537 1537 1538 1539 1540 1541 1541 1541 1540 1541 1541 1541 1541 1541 1541 1541 1541 1542 1542 1541 1540 1539 1539 1540 1543 1546 1548 1550 1550 1551 1552 1552 1551 1551 1550 1551 1552 1552 1552 1552 1552 1553 1553 1553 1552 1551 1549 1548 1548 1547
1543 1542 1541 1540 1540 1541 1540 1541 1541 1540 1539 1539 1538 1537 1537 1535 1535 1534 1534 1534 1534 1534 1534 1534 1534 1533 1533 1532 1532 1533 1533 1533 1532 1531 1531 1532 1533 1533 1534 1535 1535 1536 1536 1536 1536 1537 1537 1536 1536 1536 1536 1537 1537 1537 1537 1537 1536 1535 1534 1536 1538 1541 1544 1545 1546 1547 1546 1545 1545 1545 1544 1545 1546 1547 1548 1549 1549 1549 1549 1548 1548 1547 1546 1545 1544
1542 1541 1541 1540 1539 1539 1540 1540 1540 1539 1538 1538 1537 1537 1537 1536 1535 1535 1534 1534 1533 1533 1532 1532 1530 1530 1529 1529 1528 1529 1529 1529 1529 1528 1528 1528 1528 1529 1530 1530 1531 1532 1532 1531 1532 1533 1532 1532 1533 1533 1532 1532 1531 1531 1531 1533 1535 1533 1531 1530 1531 1534 1537 1539 1541 1542 1541 1540 1540 1540 1539 1539 1540 1541 1542 1543 1543 1543 1543 1543 1543 1543 1543 1542 1540
1540 1540 1540 1539 1538 1538 1538 1539 1538 1538 1537 1537 1536 1536 1535 1535 1535 1534 1533 1532 1530 1530 1530 1529 1527 1527 1526 1525 1525 1525 1525 1525 1525 1525 1525 1524 1525 1525 1526 1526 1526 1527 1527 1528 1528 1528 1529 1529 1529 1528 1526 1525 1525 1524 1524 1526 1529 1530 1528 1526 1525 1527 1530 1533 1535 1536 1536 1536 1536 1535 1534 1535 1536 1535 1535 1536 1535 1535 1536 1537 1537 1536 1537 1538 1536
1538 1538 1539 1538 1537 1537 1537 1537 1537 1536 1536 1535 1535 1534 1534 1533 1533 1532 1532 1531 1529 1528 1527 1526 1525 1524 1523 1523 1523 1522 1522 1522 1522 1522 1522 1522 1522 1521 1522 1522 1523 1523 1524 1524 1524 1524 1524 1523 1523 1521 1520 1519 1518 1518 1518 1520 1522 1523 1524 1523 1522 1522 1524 1527 1529 1529 1530 1531 1532 1531 1530 1531 1530 1529 1529 1529 1528 1528 1529 1530 1530 1529 1531 1532 1530
1536 1536 1537 1536 1536 1536 1536 1536 1535 1534 1534 1534 1533 1533 1532 1531 1530 1530 1530 1530 1528 1527 1526 1525 1524 1523 1522 1521 1521 1520 1520 1519 1519 1519 1519 1519 1518 1518 1518 1519 1520 1520 1521 1521 1520 1519 1518 1518 1517 1515 1514 1513 1513 1513 1514 1515 1516 1518 1519 1519 1518 1518 1519 1520 1521 1522 1524 1526 1526 1526 1526 1526 1525 1524 1524 1523 1521 1521 1523 1523 1523 1523 1524 1525 1523
1534 1535 1535 1535 1535 1534 1534 1533 1533 1533 1532 1532 1531 1530 1529 1529 1528 1527 1527 1527 1527 1526 1524 1523 1523 1522 1520 1520 1519 1518 1517 1516 1515 1515 1515 1515 1515 1515 1515 1516 1517 1517 1518 1518 1516 1515 1514 1514 1513 1511 1510 1510 1508 1508 1509 1511 1512 1514 1514 1514 1513 1512 1512 1512 1512 1514 1517 1519 1520 1520 1520 1520 1519 1519 1518 1516 1515 1515 1517 1517 1518 1518 1518 1518 1517
1532 1532 1533 1533 1533 1532 1531 1531 1531 1531 1531 1530 1529 1528 1526 1526 1525 1525 1524 1523 1523 1523 1522 1522 1521 1520 1519 1518 1517 1516 1515 1514 1512 1511 1511 1511 1511 1510 1510 1511 1512 1513 1514 1514 1512 1511 1511 1511 1509 1508 1508 1506 1504 1503 1504 1505 1507 1509 1510 1510 1510 1509 1507 1506 1505 1505 1507 1510 1513 1515 1515 1514 1513 1513 1512 1510 1509 1510 1511 1512 1512 1512 1512 1511 1510
1530 1530 1530 1531 1530 1529 1530 1530 1530 1529 1529 1528 1528 1527 1525 1523 1522 1522 1522 1521 1520 1520 1519 1519 1518 1518 1516 1515 1514 1513 1512 1511 1510 1508 1507 1506 1506 1506 1506 1506 1507 1508 1509 1508 1506 1507 1508 1508 1506 1505 1504 1503 1501 1500 1500 1500 1502 1503 1504 1505 1505 1506 1506 1504 1503 1502 1500 1501 1506 1510 1511 1509 1508 1507 1506 1505 1505 1505 1505 1505 1506 1506 1506 1505 1503
1528 1527 1527 1528 1528 1528 1528 1528 1529 1528 1527 1527 1527 1526 1525 1523 1521 1520 1519 1518 1517 1517 1516 1516 1515 1515 1514 1513 1512 1511 1510 1509 1507 1506 1504 1503 1502 1502 1502 1502 1502 1502 1502 1502 1501 1502 1503 1504 1502 1501 1500 1499 1498 1498 1498 1497 1498 1499 1499 1499 1500 1501 1502 1502 1501 1499 1497 1496 1499 1504 1506 1506 1504 1502 1500 1499 1499 1499 1498 1498 1499 1500 1499 1499 1497
1525 1525 1526 1526 1526 1526 1526 1527 1527 1526 1526 1525 1525 1524 1524 1523 1521 1519 1517 1515 1514 1513 1513 1513 1512 1511 1511 1510 1509 1508 1507 1506 1505 1504 1502 1501 1500 1499 1498 1498 1498 1498 1497 1496 1495 1496 1498 1498 1497 1497 1496 1495 1494 1495 1495 1495 1494 1494 1493 1493 1494 1495 1496 1497 1496 1494 1493 1492 1494 1497 1501 1502 1500 1497 1495 1493 1493 1492 1491 1491 1492 1493 1493 1493 1492
1524 1524 1524 1524 1524 1524 1524 1525 1524 1523 1523 1523 1522 1522 1522 1520 1519 1518 1516 1514 1512 1511 1511 1510 1510 1508 1507 1507 1506 1505 1504 1503 1502 1502 1501 1499 1498 1497 1495 1495 1495 1494 1493 1491 1490 1491 1492 1492 1492 1492 1492 1491 1489 1489 1490 1490 1490 1489 1488 1488 1489 1490 1490 1491 1490 1489 1489 1488 1488 1491 1495 1496 1494 1491 1489 1487 1486 1486 1485 1485 1486 1487 1487 1487 1487
1523 1523 1523 1523 1523 1523 1522 1522 1522 1521 1521 1520 1519 1519 1518 1517 1516 1515 1514 1513 1512 1511 1509 1508 1507 1506 1505 1504 1503 1502 1500 1500 1501 1500 1499 1497 1495 1493 1492 1491 1491 1490 1489 1488 1487 1487 1487 1487 1488 1488 1487 1487 1486 1485 1484 1484 1485 1485 1484 1483 1484 1484 1485 1484 1484 1485 1485 1484 1484 1486 1489 1488 1486 1485 1483 1482 1481 1480 1480 1480 1481 1482 1481 1482 1481
1522 1521 1521 1521 1521 1520 1520 1520 1519 1519 1518 1517 1516 1516 1515 1514 1514 1513 1512 1512 1511 1509 1508 1506 1505 1504 1503 1502 1501 1499 1498 1498 1498 1497 1496 1495 1493 1491 1489 1488 1487 1487 1486 1485 1484 1484 1483 1483 1483 1483 1483 1483 1483 1482 1481 1480 1480 1481 1481 1480 1480 1480 1481 1481 1481 1481 1482 1481 1481 1481 1482 1480 1478 1478 1478 1477 1477 1477 1477 1478 1478 1478 1477 1477 1477
1520 1520 1520 1519 1518 1518 1517 1517 1517 1516 1515 1514 1514 1513 1513 1512 1512 1511 1510 1510 1509 1508 1506 1505 1503 1502 1501 1500 1498 1496 1495 1495 1495 1494 1493 1492 1491 1489 1487 1485 1485 1485 1484 1484 1483 1482 1481 1480 1480 1479 1479 1479 1479 1479 1479 1478 1477 1476 1476 1477 1478 1478 1479 1479 1479 1480 1480 1480 1480 1479 1478 1475 1473 1472 1473 1475 1476 1477 1478 1478 1478 1477 1476 1475 1475
1518 1518 1517 1516 1515 1515 1515 1514 1514 1513 1513 1512 1512 1511 1510 1510 1509 1509 1508 1507 1506 1505 1504 1503 1502 1501 1499 1497 1495 1493 1492 1491 1491 1490 1489 1489 1488 1487 1486 1484 1482 1482 1481 1481 1480 1480 1479 1478 1476 1475 1475 1475 1475 1475 1475 1474 1474 1474 1473 1473 1474 1475 1476 1477 1478 1478 1479 1478 1478 1477 1474 1471 1470 1470 1472 1474 1474 1474 1475 1476 1476 1476 1475 1474 1473
1516 1515 1514 1513 1513 1512 1511 1511 1511 1511 1510 1510 1510 1509 1508 1507 1506 1506 1505 1504 1503 1502 1501 1500 1499 1499 1497 1494 1492 1491 1490 1488 1487 1486 1486 1485 1484 1484 1483 1482 1480 1478 1476 1476 1475 1475 1475 1474 1473 1472 1471 1470 1470 1470 1469 1469 1469 1469 1468 1468 1470 1471 1472 1473 1474 1474 1473 1472 1471 1471 1469 1467 1467 1467 1467 1466 1465 1466 1468 1470 1471 1472 1472 1472 1471
1513 1513 1512 1511 1510 1509 1509 1509 1508 1508 1508 1508 1507 1506 1505 1504 1504 1503 1503 1502 1500 1499 1498 1497 1496 1496 1494 1492 1490 1488 1487 1485 1484 1483 1482 1481 1481 1480 1479 1478 1477 1475 1474 1473 1471 1470 1470 1470 1470 1469 1468 1467 1467 1466 1465 1464 1464 1464 1463 1464 1465 1466 1467 1467 1467 1467 1466 1464 1463 1463 1463 1463 1462 1460 1459 1458 1459 1461 1463 1464 1466 1467 1468 1467 1466
1512 1511 1509 1509 1508 1507 1507 1506 1506 1505 1505 1504 1504 1503 1502 1502 1501 1500 1499 1498 1497 1496 1495 1494 1494 1493 1492 1489 1487 1486 1484 1483 1482 1480 1479 1478 1477 1476 1475 1474 1473 1471 1470 1470 1468 1467 1465 1465 1465 1464 1464 1463 1463 1462 1462 1461 1460 1460 1460 1460 1460 1460 1460 1460 1460 1460 1459 1457 1456 1455 1456 1457 1456 1454 1453 1453 1454 1456 1457 1458 1460 1461 1460 1459 1459
1510 1509 1508 1507 1506 1505 1504 1504 1503 1502 1502 1501 1501 1500 1499 1498 1498 1497 1496 1496 1495 1494 1493 1492 1491 1490 1489 1487 1485 1483 1481 1480 1478 1477 1475 1474 1473 1472 1471 1470 1468 1467 1466 1465 1465 1463 1462 1460 1460 1459 1458 1458 1458 1458 1457 1457 1456 1456 1455 1455 1456 1455 1454 1454 1453 1453 1452 1451 1450 1450 1451 1451 1450 1449 1449 1448 1449 1450 1451 1453 1454 1454 1453 1453 1455
1508 1507 1506 1505 1504 1503 1502 1501 1500 1500 1499 1498 1497 1497 1496 1496 1495 1494 1493 1493 1492 1491 1490 1489 1488 1487 1485 1484 1482 1481 1479 1477 1475 1474 1472 1471 1469 1468 1467 1466 1465 1463 1462 1461 1460 1459 1458 1457 1456 1454 1453 1453 1453 1453 1453 1452 1452 1451 1450 1449 1450 1450 1449 1448 1447 1446 1446 1446 1446 1446 1446 1446 1446 1445 1444 1444 1445 1446 1446 1448 1449 1449 1449 1449 1449
1506 1505 1503 1502 1501 1501 1500 1499 1498 1497 1496 1495 1494 1494 1493 1493 1492 1491 1490 1490 1489 1488 1487 1487 1485 1484 1482 1481 1480 1479 1477 1475 1473 1471 1469 1468 1466 1465 1463 1462 1461 1459 1458 1457 1456 1454 1453 1452 1452 1450 1449 1448 1448 1448 1448 1448 1447 1446 1445 1444 1444 1444 1444 1443 1443 1441 1441 1441 1441 1441 1442 1442 1441 1441 1440 1440 1441 1442 1442 1442 1443 1444 1443 1443 1443
1504 1503 1501 1500 1499 1498 1498 1497 1496 1495 1494 1493 1492 1491 1491 1490 1489 1488 1487 1487 1486 1485 1484 1483 1482 1481 1480 1479 1478 1476 1474 1472 1470 1469 1467 1465 1463 1461 1460 1458 1457 1456 1455 1453 1452 1450 1449 1448 1447 1446 1445 1444 1443 1443 1443 1443 1442 1442 1441 1440 1439 1438 1438 1438 1438 1438 1437 1436 1436 1436 1437 1437 1437 1437 1436 1436 1436 1436 1436 1436 1437 1437 1438 1438 1437
1501 1500 1499 1499 1497 1496 1495 1494 1493 1492 1491 1490 1489 1488 1488 1487 1486 1485 1484 1484 1483 1482 1481 1480 1480 1478 1477 1476 1474 1472 1471 1469 1468 1466 1465 1462 1460 1458 1457 1455 1454 1452 1451 1450 1448 1447 1445 1444 1443 1442 1441 1440 1439 1438 1438 1438 1438 1437 1436 1435 1435 1434 1434 1434 1434 1433 1433 1432 1431 1431 1431 1431 1432 1432 1432 1432 1431 1431 1430 1430 1431 1431 1431 1431 1431
1499 1498 1497 1496 1495 1494 1493 1492 1491 1490 1489 1488 1487 1486 1485 1484 1483 1483 1482 1481 1480 1479 1478 1477 1476 1475 1474 1473 1471 1469 1468 1467 1465 1464 1462 1460 1457 1455 1454 1452 1451 1449 1447 1446 1445 1443 1442 1441 1439 1438 1438 1436 1435 1434 1434 1434 1433 1432 1431 1430 1430 1430 1430 1429 1429 1428 1428 1427 1426 1426 1426 1425 1425 1426 1427 1427 1427 1426 1426 1425 1425 1425 1425 1425 1425
1497 1496 1495 1494 1493 1492 1491 1490 1489 1488 1486 1485 1484 1483 1482 1481 1481 1480 1479 1478 1477 1476 1475 1474 1473 1472 1471 1469 1467 1466 1465 1464 1462 1461 1459 1457 1455 1453 1451 1450 1448 1446 1444 1443 1441 1440 1439 1438 1437 1435 1434 1433 1432 1431 1430 1430 1429 1427 1426 1425 1425 1425 1425 1424 1423 1423 1423 1422 1421 1421 1420 1420 1420 1420 1420 1420 1421 1420 1420 1419 1419 1419 1419 1418 1418
1495 1494 1493 1492 1491 1489 1488 1487 1486 1485 1484 1483 1482 1480 1480 1479 1477 1477 1476 1475 1474 1473 1472 1471 1470 1468 1467 1466 1464 1463 1462 1461 1460 1458 1456 1454 1452 1451 1449 1447 1445 1444 1442 1441 1440 1438 1437 1436 1434 1433 1432 1430 1429 1428 1427 1426 1425 1423 1422 1421 1420 1420 1420 1419 1419 1418 1417 1416 1416 1416 1415 1414 1414 1414 1413 1413 1413 1413 1412 1412 1412 1411 1411 1411 1411
1493 1492 1491 1490 1488 1487 1486 1485 1484 1483 1482 1481 1479 1478 1477 1476 1475 1474 1473 1472 1471 1470 1469 1468 1467 1465 1464 1462 1461 1460 1459 1457 1456 1455 1454 1452 1450 1449 1447 1445 1443 1442 1441 1439 1438 1436 1435 1433 1432 1431 1429 1428 1427 1426 1424 1423 1421 1420 1419 1418 1417 1416 1415 1415 1414 1413 1411 1410 1410 1410 1410 1409 1409 1408 1408 1407 1407 1406 1406 1405 1405 1404 1404 1404 1404